Tracking 27122 objects as of 24-Mar-2023
HD Live streaming from Space Station
objects crossing your sky now

STARLINK-4072

Track STARLINK-4072 now!
10-day predictions
STARLINK-4072 is classified as:


NORAD ID: 52694
Int'l Code: 2022-053AQ
Perigee: 546.1 km
Apogee: 547.6 km
Inclination: 53.2 °
Period: 95.4 minutes
Semi major axis: 6917 km
RCS: Unknown
Launch date: May 18, 2022
Source: United States (US)
Launch site: AIR FORCE EASTERN TEST RANGE (AFETR)
Your satellite tracking list
Your tracking list is empty




NASA's NSSDC Master Catalog

Two Line Element Set (TLE):
1 52694U 22053AQ  23083.08377247  .00004423  00000-0  29569-3 0  9999
2 52694  53.2158 319.6372 0001098  94.4509 265.6608 15.08852868 47467
Source of the keplerian elements: AFSPC